IRIDIUM 110 (43481 NORAD) Tracking and Keplerian Element Data

This shows tracking and keplerian element data for the satellite.

Feedback or suggestion? Click here.




ElementValue
Catalog43481
NameIRIDIUM 110
Epoch Orbit35104
Epoch Day34.82775764
Epoch Year2025
RAAN296.6608
Inclination86.3971
Eccentricity0.0001731
Argument of Perigee92.6059
Mean Anonmoly267.5335
Mean Motion14.34218611
Decay Rate6.25E-06
L11 43481U 18047F 25034.82775764 .00000625 00000+0 21616-3 0 9991
L22 43481 86.3971 296.6608 0001731 92.6059 267.5335 14.34218611351041



Live tracking and technical data element details for IRIDIUM 110 (NORAD 43481). IRIDIUM 110 can be tracked NOW for your location showing map with azimuth and elevation plus other details from your city location.







IsCatalogInMostPopularTable: catalog: 43481, numindb: 580
Update: records affected: 1



GetName: 43481 IRIDIUM 110

Hit Count: updated at: Sat, 17 May 2025 09:25:22 GMT